Content
SEND FEEDBACK

Daily
Averages
Monthly
Summary
Canada

WATERLOO WELLING, ONTARIO


Home > North America > Canada > Ontario
Elevation: 1031 feet     Latitude: 43 27N     Longitude: 080 23W

WEATHER
 
SELECT A DAY
Number of Records: 263,168;   Date Range: 1/1/95 - 9/28/14
 
SHARE

PRINT THIS DATA

[ ← Previous Day ]
WEATHER ALMANAC - FEBRUARY 6, 2013
[ Next Day → ]
[ °C ]   °F
Weather ElementAverageHighLow
Temperature19.4 °F24.8 °F (1:28 am)6.8 °F (10:00 pm)
Dewpoint14.3 °F21.2 °F (12:10 am)3.2 °F (10:00 am)
Humidity80.6 %93 % (12:10 am)40 % (1:00 pm)
Barometer30.10 in30.38 in (10:00 pm)29.87 in (12:10 am)
Wind Speed11.3 mph17.3 mph (12:20 am)
Wind Gust25.3 mph (5:00 am)
Weather ElementAverage
Visibility7.1 mi
Wind DirectionW (273.6 °)

Weather ElementTotal
Precipitation---
Heating Degree Days49.2 (Base 65)
Averaged from 59 records on February 6, 2013
WEATHER CONDITIONS BREAKOUT
WIND DIRECTION BREAKOUT
WEATHER BY HOUR - FEBRUARY 6, 2013
[ °C ]   °F
Local TimeTemperatureDewpointHumidityBarometerVisibilityWind DirectionWind SpeedGust SpeedPrecipitationEventsConditions
12:10 AM23.0 °F21.2 °F93 %29.87 in4.0 miWSW (240°)16.1 mphRainLight Freezing Rain
12:13 AM23.0 °F21.2 °F93 %29.87 in4.0 miWSW (240°)12.7 mph18.4 mphOvercast
12:16 AM23.0 °F21.2 °F93 %29.87 in4.0 miWSW (240°)16.1 mphSnowLight Snow
12:20 AM23.0 °F21.2 °F93 %29.87 in4.0 miSW (230°)17.3 mphSnowLight Snow
12:53 AM23.0 °F21.2 °F93 %29.88 in5.0 miWSW (240°)11.5 mphSnowLight Snow
1:00 AM24.0 °F21.0 °F85 %29.88 in5.0 miWSW (240°)11.5 mphSnowLight Snow
1:00 AM23.0 °F21.2 °F93 %29.88 in5.0 miWSW (250°)10.4 mphSnowLight Snow
1:28 AM24.8 °F21.2 °F86 %29.90 in6.0 miWest (270°)12.7 mphSnowLight Snow
2:00 AM23.0 °F19.4 °F86 %29.91 in9.0 miWNW (290°)12.7 mph19.6 mphSnowLight Snow
2:03 AM23.0 °F19.4 °F86 %29.91 in9.0 miWNW (290°)17.3 mphSnowLight Snow
2:04 AM23.0 °F19.4 °F86 %29.91 in9.0 miWNW (290°)17.3 mphSnowLight Snow
2:06 AM23.0 °F19.4 °F86 %29.91 in9.0 miWNW (290°)16.1 mphSnowLight Snow
3:00 AM23.0 °F17.6 °F80 %29.94 in9.0 miWest (280°)12.7 mph18.4 mphSnowLight Snow
4:00 AM21.2 °F15.8 °F80 %29.97 in9.0 miWest (280°)17.3 mph24.2 mphSnowLight Snow
4:04 AM21.2 °F15.8 °F80 %29.98 in9.0 miWest (280°)15.0 mph24.2 mphMostly Cloudy
4:12 AM21.2 °F15.8 °F80 %29.98 in9.0 miWest (280°)17.3 mph23.0 mphSnowLight Snow
5:00 AM21.2 °F17.6 °F86 %30.01 in9.0 miWNW (290°)15.0 mph25.3 mphSnowLight Snow
5:40 AM21.2 °F17.6 °F86 %30.03 in7.0 miWNW (290°)12.7 mph18.4 mphSnowLight Snow
5:43 AM21.2 °F17.6 °F86 %30.03 in5.0 miWNW (290°)12.7 mph18.4 mphSnowLight Snow
5:49 AM21.2 °F17.6 °F86 %30.04 in6.0 miWNW (290°)13.8 mphSnowLight Snow
5:51 AM21.2 °F15.8 °F80 %30.04 in6.0 miWNW (290°)13.8 mphSnowLight Snow
6:00 AM21.2 °F15.8 °F80 %30.04 in9.0 miWNW (290°)11.5 mph19.6 mphSnowLight Snow
6:04 AM21.2 °F15.8 °F80 %30.05 in9.0 miWNW (300°)12.7 mph19.6 mphSnowLight Snow
6:05 AM21.2 °F15.8 °F80 %30.05 in9.0 miWNW (290°)13.8 mphSnowLight Snow
6:06 AM21.2 °F15.8 °F80 %30.05 in9.0 miWNW (290°)15.0 mphSnowLight Snow
6:16 AM21.2 °F15.8 °F80 %30.06 in5.0 miWNW (290°)13.8 mphSnowLight Snow
6:20 AM19.4 °F15.8 °F86 %30.06 in2.2 miWNW (290°)13.8 mphSnowLight Snow
6:23 AM19.4 °F17.6 °F93 %30.07 in1.8 miWNW (300°)12.7 mph19.6 mphSnowLight Snow
6:32 AM19.4 °F17.6 °F93 %30.08 in2.0 miWNW (290°)10.4 mphSnowLight Snow
6:37 AM19.4 °F15.8 °F86 %30.08 in3.0 miWNW (290°)12.7 mphSnowLight Snow
6:45 AM19.4 °F15.8 °F86 %30.09 in2.5 miNW (320°)12.7 mphSnowLight Snow
6:52 AM19.4 °F17.6 °F93 %30.09 in1.8 miNW (310°)11.5 mph18.4 mphSnowLight Snow
6:55 AM19.4 °F15.8 °F86 %30.10 in2.0 miNW (310°)10.4 mph18.4 mphSnowLight Snow
7:00 AM20.0 °F16.0 °F77 %30.10 in3.0 miNW (310°)10.4 mphSnowLight Snow
7:00 AM19.4 °F15.8 °F86 %30.10 in3.0 miNW (310°)9.2 mphSnowLight Snow
7:03 AM19.4 °F14.0 °F80 %30.10 in6.0 miNW (320°)12.7 mph18.4 mphSnowLight Snow
7:06 AM19.4 °F14.0 °F80 %30.11 in9.0 miNW (310°)11.5 mph18.4 mphSnowLight Snow
7:16 AM19.4 °F12.2 °F74 %30.12 in9.0 miNW (310°)13.8 mphOvercast
7:31 AM19.4 °F12.2 °F74 %30.13 in9.0 miNW (320°)9.2 mphSnowLight Snow
7:46 AM17.6 °F12.2 °F79 %30.14 in9.0 miNW (320°)12.7 mphSnowLight Snow
8:00 AM17.6 °F12.2 °F79 %30.16 in9.0 miNNW (340°)16.1 mphSnowLight Snow
8:23 AM15.8 °F10.4 °F79 %30.18 in9.0 miNNW (330°)10.4 mphSnowLight Snow
8:43 AM15.8 °F8.6 °F73 %30.19 in9.0 miNNW (340°)11.5 mphScattered Clouds
9:00 AM15.8 °F8.6 °F73 %30.20 in9.0 miNNW (340°)10.4 mphClear
10:00 AM14.0 °F3.2 °F62 %30.24 in9.0 miNorth (350°)10.4 mphClear
11:00 AM15.8 °F3.2 °F58 %30.26 in9.0 miNNW (330°)9.2 mphClear
12:00 PM17.6 °F5.0 °F58 %30.27 in9.0 miNW (310°)8.1 mphScattered Clouds
1:00 PM19.0 °F5.0 °F40 %30.27 in10.0 miWNW (300°)4.6 mph
2:00 PM19.4 °F8.6 °F63 %30.27 in9.0 miNW (310°)8.1 mphOvercast
3:00 PM21.2 °F8.6 °F58 %30.29 in9.0 miNNW (330°)10.4 mphMostly Cloudy
4:00 PM21.2 °F12.2 °F68 %30.28 in9.0 miWest (280°)6.9 mphOvercast
5:00 PM21.2 °F10.4 °F63 %30.29 in9.0 miWSW (240°)8.1 mphPartly Cloudy
6:00 PM19.4 °F12.2 °F74 %30.30 in9.0 miSSW (210°)3.5 mphClear
7:00 PM15.0 °F11.0 °F76 %30.35 in10.0 miWest (270°)3.5 mph
7:00 PM15.8 °F10.4 °F79 %30.34 in9.0 miWest (260°)3.5 mphClear
8:00 PM10.4 °F8.6 °F92 %30.36 in9.0 miCalmPartly Cloudy
9:00 PM8.6 °F6.8 °F92 %30.36 in9.0 miEast (90°)3.5 mphClear
10:00 PM6.8 °F5.0 °F92 %30.38 in9.0 miCalmClear
11:00 PM8.6 °F5.0 °F85 %30.35 in9.0 miENE (60°)4.6 mphPartly Cloudy
Hourly data recorded from CYKF, located miles away from Waterloo Welling, Ontario







STORIES FROM OUR PARTNERS